EW8655 Weather Reports


time (UTC)temp
C
wind
direction
speed
KPH
gust
KPH
rain 1hr
cm
rain 24hr
cm
rain mn
cm
humidity
%
barometer
mb
20260906211007 21 79 3.2 11.3 0.00 0.00 0.00 70 1016.1
20260906210506 21 93 3.2 11.3 0.00 0.00 0.00 71 1016.1
20260906205507 21 55 4.8 8.0 0.00 0.00 0.00 72 1016.1
20260906205007 21 48 3.2 11.3 0.00 0.00 0.00 72 1016.1
20260906204506 21 56 8.0 11.3 0.00 0.00 0.00 72 1016.1
20260906204006 21 86 6.4 11.3 0.00 0.00 0.00 72 1016.1
20260906203507 21 82 8.0 11.3 0.00 0.00 0.00 72 1016.1
20260906203007 21 80 3.2 11.3 0.00 0.00 0.00 72 1016.1
20260906202506 21 51 8.0 11.3 0.00 0.00 0.00 73 1016.1
20260906202007 21 83 4.8 11.3 0.00 0.00 0.00 73 1016.1
20260906201506 21 63 8.0 11.3 0.00 0.00 0.00 73 1016.1
20260906200507 21 70 8.0 11.3 0.00 0.00 0.00 73 1016.1
20260906200006 21 69 8.0 11.3 0.00 0.00 0.00 74 1016.1
20260906195506 21 75 8.0 11.3 0.00 0.00 0.00 74 1016.1
20260906195007 21 58 8.0 11.3 0.00 0.00 0.00 74 1016.1
20260906194007 20 49 8.0 11.3 0.00 0.00 0.00 75 1016.4
20260906192506 20 81 8.0 19.3 0.00 0.00 0.00 76 1017.1
20260906192006 20 82 11.3 19.3 0.00 0.00 0.00 76 1017.1
20260906191506 20 75 8.0 14.5 0.00 0.00 0.00 76 1017.1
20260906191007 20 63 11.3 14.5 0.00 0.00 0.00 77 1017.1
20260906190506 20 81 11.3 19.3 0.00 0.00 0.00 77 1017.1
20260906190007 20 100 14.5 19.3 0.00 0.00 0.00 77 1017.1
20260906185506 20 92 14.5 19.3 0.00 0.00 0.00 77 1017.1
20260906185006 20 76 14.5 19.3 0.00 0.00 0.00 77 1017.1
20260906184506 20 86 11.3 19.3 0.00 0.00 0.00 77 1017.1
20260906184006 20 81 14.5 22.5 0.00 0.00 0.00 77 1017.1
20260906183007 19 98 14.5 22.5 0.00 0.00 0.00 78 1017.1
20260906182505 19 85 14.5 25.7 0.00 0.00 0.00 78 1017.1
20260906182006 19 92 17.7 25.7 0.00 0.00 0.00 78 1017.1
20260906181505 20 88 14.5 25.7 0.00 0.00 0.00 79 1017.1
20260906181007 19 87 14.5 25.7 0.00 0.00 0.00 78 1017.1
20260906180506 19 66 16.1 25.7 0.00 0.00 0.00 79 1017.1
20260906180006 19 67 14.5 22.5 0.00 0.00 0.00 79 1017.1
20260906175505 19 70 11.3 14.5 0.00 0.00 0.00 79 1017.1
20260906174506 19 74 14.5 19.3 0.00 0.00 0.00 79 1017.1
20260906174006 19 76 14.5 22.5 0.00 0.00 0.00 80 1017.1
20260906173506 19 77 14.5 22.5 0.00 0.00 0.00 80 1017.1
20260906173006 20 75 11.3 19.3 0.00 0.00 0.00 80 1017.1
20260906172506 19 65 11.3 19.3 0.00 0.00 0.00 80 1017.1
20260906172006 19 78 14.5 19.3 0.00 0.00 0.00 80 1017.1
20260906171006 19 70 14.5 22.5 0.00 0.00 0.00 81 1017.1
20260906170507 19 75 14.5 22.5 0.00 0.00 0.00 81 1017.1
20260906170006 19 75 14.5 22.5 0.00 0.00 0.00 81 1017.1
20260906165506 19 79 14.5 22.5 0.00 0.00 0.00 81 1017.1
20260906165006 19 72 14.5 22.5 0.00 0.00 0.00 81 1017.1
20260906164505 19 83 14.5 22.5 0.00 0.00 0.00 81 1017.1
20260906164007 19 76 14.5 25.7 0.00 0.00 0.00 81 1017.1
20260906163006 19 75 14.5 22.5 0.00 0.00 0.00 83 1017.1
20260906162505 19 66 19.3 22.5 0.00 0.00 0.00 83 1017.1
20260906161506 19 77 19.3 25.7 0.00 0.00 0.00 81 1017.1
20260906161007 19 74 17.7 25.7 0.00 0.00 0.00 82 1017.1
20260906160506 19 74 19.3 25.7 0.00 0.00 0.00 81 1017.1
20260906160005 19 73 19.3 25.7 0.00 0.00 0.00 83 1017.1
20260906155505 19 74 19.3 25.7 0.00 0.00 0.00 83 1017.1
20260906155006 19 78 19.3 25.7 0.00 0.00 0.00 83 1017.1
20260906154506 19 65 19.3 25.7 0.00 0.00 0.00 83 1017.1
20260906153506 19 75 16.1 22.5 0.00 0.00 0.00 83 1017.1
20260906153007 19 61 19.3 29.0 0.00 0.00 0.00 83 1016.1
20260906152505 19 78 22.5 29.0 0.00 0.00 0.00 83 1016.1
20260906151506 19 79 19.3 29.0 0.00 0.00 0.00 83 1016.1
20260906151006 19 85 22.5 29.0 0.00 0.00 0.00 82 1016.1
20260906150506 19 76 19.3 25.7 0.00 0.00 0.00 83 1016.1
20260906150006 19 79 22.5 25.7 0.00 0.00 0.00 83 1016.1
20260906145506 19 66 22.5 25.7 0.00 0.00 0.00 83 1016.1
20260906145006 19 83 19.3 25.7 0.00 0.00 0.00 83 1016.1
20260906144505 19 75 22.5 25.7 0.00 0.00 0.00 83 1016.1
20260906144006 19 83 19.3 25.7 0.00 0.00 0.00 83 1016.1
20260906142006 19 80 19.3 29.0 0.00 0.00 0.00 83 1016.1
20260906141006 19 68 19.3 29.0 0.00 0.00 0.00 83 1016.1
20260906140006 19 72 19.3 25.7 0.00 0.00 0.00 83 1016.1
20260906135505 19 67 19.3 22.5 0.00 0.00 0.00 83 1016.1
20260906135006 19 66 19.3 25.7 0.00 0.00 0.00 84 1016.1
20260906134506 19 64 16.1 25.7 0.00 0.00 0.00 85 1016.1
20260906134006 19 66 19.3 25.7 0.00 0.00 0.00 84 1016.1
20260906133506 19 72 14.5 19.3 0.00 0.00 0.00 84 1016.1
20260906133006 19 64 19.3 22.5 0.00 0.00 0.00 84 1016.1
20260906132506 19 58 19.3 22.5 0.00 0.00 0.00 85 1016.1
20260906132006 19 72 19.3 22.5 0.00 0.00 0.00 85 1016.1
20260906131505 19 72 19.3 29.0 0.00 0.00 0.00 85 1016.1
20260906131006 19 68 19.3 29.0 0.00 0.00 0.00 85 1016.1
20260906130506 19 65 19.3 22.5 0.00 0.00 0.00 85 1016.1
20260906130006 19 80 19.3 22.5 0.00 0.00 0.00 85 1016.1
20260906125505 19 73 19.3 25.7 0.00 0.00 0.00 85 1016.1
20260906124505 19 74 19.3 25.7 0.00 0.00 0.00 85 1016.1
20260906123506 20 68 19.3 25.7 0.00 0.00 0.00 86 1016.1
20260906123006 20 61 19.3 25.7 0.00 0.00 0.00 86 1016.1
20260906122505 20 62 19.3 25.7 0.00 0.00 0.00 86 1015.6
20260906122007 20 63 19.3 22.5 0.00 0.00 0.00 86 1016.1
20260906121506 20 64 19.3 25.7 0.00 0.00 0.00 86 1016.1
20260906121007 20 75 19.3 25.7 0.00 0.00 0.00 86 1015.6
20260906120506 20 56 14.5 25.7 0.00 0.00 0.00 87 1015.1
20260906120005 20 65 14.5 22.5 0.00 0.00 0.00 87 1015.6
20260906115505 20 50 14.5 22.5 0.00 0.00 0.00 87 1015.1
20260906115006 20 52 14.5 22.5 0.00 0.00 0.00 87 1015.1
20260906114505 20 56 14.5 19.3 0.00 0.00 0.00 87 1015.1
20260906113506 20 60 14.5 19.3 0.00 0.00 0.00 87 1015.1
20260906113006 20 60 14.5 19.3 0.00 0.00 0.00 87 1015.1
20260906112508 20 69 14.5 19.3 0.00 0.00 0.00 87 1015.1
20260906112009 20 51 14.5 19.3 0.00 0.00 0.00 87 1015.0
20260906111505 20 54 11.3 14.5 0.00 0.00 0.00 87 1015.0
20260906111006 20 52 11.3 14.5 0.00 0.00 0.00 87 1015.1
20260906110506 20 63 11.3 14.5 0.00 0.00 0.00 87 1014.1
20260906110006 20 50 11.3 14.5 0.00 0.00 0.00 87 1014.2
20260906105507 20 59 11.3 14.5 0.00 0.00 0.00 86 1014.1
20260906105009 20 62 11.3 14.5 0.00 0.00 0.00 86 1014.1
20260906103508 20 62 9.7 14.5 0.00 0.00 0.00 86 1014.1
20260906103009 20 61 11.3 14.5 0.00 0.00 0.00 85 1014.1
20260906102507 20 57 11.3 14.5 0.00 0.00 0.00 85 1014.1
20260906102008 20 63 8.0 14.5 0.00 0.00 0.00 85 1014.1
20260906101007 20 47 8.0 11.3 0.00 0.00 0.00 85 1014.1
20260906100508 20 40 8.0 14.5 0.00 0.00 0.00 85 1014.1
20260906100007 20 36 8.0 14.5 0.00 0.00 0.00 85 1014.1
20260906095008 20 45 8.0 11.3 0.00 0.00 0.00 84 1013.9
20260906094507 20 41 8.0 14.5 0.00 0.00 0.00 84 1014.1
20260906094008 20 74 8.0 14.5 0.00 0.00 0.00 84 1014.1
20260906093507 20 45 8.0 14.5 0.00 0.00 0.00 84 1013.9
20260906093008 20 55 8.0 19.3 0.00 0.00 0.00 84 1013.7
20260906092507 20 53 11.3 19.3 0.00 0.00 0.00 83 1013.1
20260906092007 20 52 8.0 14.5 0.00 0.00 0.00 84 1013.1
20260906091507 20 47 11.3 14.5 0.00 0.00 0.00 83 1013.1
20260906090507 20 46 8.0 11.3 0.00 0.00 0.00 83 1013.1
20260906090007 20 49 8.0 14.5 0.00 0.00 0.00 83 1013.1
20260906085506 20 50 8.0 14.5 0.00 0.00 0.00 83 1013.1
20260906085008 20 34 8.0 14.5 0.00 0.00 0.00 83 1013.1
20260906083508 20 38 8.0 11.3 0.00 0.00 0.00 82 1013.1
20260906083008 20 51 9.7 14.5 0.00 0.00 0.00 82 1013.1
20260906081506 20 51 8.0 14.5 0.00 0.00 0.00 81 1013.1
20260906081008 20 52 8.0 14.5 0.00 0.00 0.00 81 1013.1
20260906080507 20 52 8.0 14.5 0.00 0.00 0.00 80 1013.1
20260906080006 20 57 8.0 14.5 0.00 0.00 0.00 80 1013.1
20260906075007 20 54 8.0 14.5 0.00 0.00 0.00 80 1013.1
20260906074507 20 41 11.3 14.5 0.00 0.00 0.00 80 1013.1
20260906074008 20 48 11.3 14.5 0.00 0.00 0.00 80 1013.1
20260906073507 20 41 8.0 14.5 0.00 0.00 0.00 80 1013.1
20260906073008 20 54 8.0 14.5 0.00 0.00 0.00 80 1013.1
20260906072507 20 30 8.0 11.3 0.00 0.00 0.00 80 1013.1
20260906071507 21 54 8.0 14.5 0.00 0.00 0.00 80 1013.1
20260906071008 21 56 8.0 11.3 0.00 0.00 0.00 79 1013.1
20260906070507 21 49 6.4 11.3 0.00 0.00 0.00 79 1013.1
20260906070006 21 41 8.0 11.3 0.00 0.00 0.00 79 1013.1
20260906065507 21 58 8.0 11.3 0.00 0.00 0.00 79 1013.1
20260906065007 21 48 8.0 11.3 0.00 0.00 0.00 79 1013.1
20260906064507 21 65 8.0 11.3 0.00 0.00 0.00 79 1013.1
20260906064007 21 62 8.0 11.3 0.00 0.00 0.00 79 1013.1
20260906063507 21 52 8.0 11.3 0.00 0.00 0.00 79 1013.1
20260906063007 21 57 8.0 11.3 0.00 0.00 0.00 79 1013.1
20260906062507 21 65 11.3 11.3 0.00 0.00 0.00 79 1013.1
20260906062007 21 59 8.0 11.3 0.00 0.00 0.00 79 1013.1
20260906061507 21 44 11.3 11.3 0.00 0.00 0.00 79 1013.1
20260906061007 21 41 11.3 14.5 0.00 0.00 0.00 79 1013.1
20260906060507 21 61 11.3 14.5 0.00 0.00 0.00 79 1013.1
20260906060006 21 61 11.3 14.5 0.00 0.00 0.00 79 1013.1
20260906055506 21 49 11.3 14.5 0.00 0.00 0.00 79 1013.1
20260906055007 21 44 11.3 19.3 0.00 0.00 0.00 79 1013.1
20260906054007 21 56 11.3 11.3 0.00 0.00 0.00 80 1013.1
20260906053507 21 63 11.3 14.5 0.00 0.00 0.00 81 1013.1
20260906053007 21 60 11.3 14.5 0.00 0.00 0.00 81 1013.1
20260906052506 21 45 11.3 14.5 0.00 0.00 0.00 80 1013.1
20260906052008 21 56 11.3 14.5 0.00 0.00 0.00 81 1013.1
20260906051507 21 64 11.3 19.3 0.00 0.00 0.00 80 1013.1
20260906050007 21 61 8.0 11.3 0.00 0.00 0.00 80 1013.1
20260906045506 21 53 8.0 11.3 0.00 0.00 0.00 79 1013.1
20260906045007 21 49 8.0 11.3 0.00 0.00 0.00 79 1013.1
20260906044507 21 43 8.0 11.3 0.00 0.00 0.00 79 1013.1
20260906044007 21 28 8.0 8.0 0.00 0.00 0.00 79 1013.1
20260906043507 21 44 8.0 8.0 0.00 0.00 0.00 79 1012.9
20260906043007 21 38 8.0 11.3 0.00 0.00 0.00 79 1012.7
20260906042507 21 28 8.0 14.5 0.00 0.00 0.00 79 1013.1
20260906041506 21 51 8.0 11.3 0.00 0.00 0.00 80 1013.1
20260906041007 21 58 6.4 11.3 0.00 0.00 0.00 81 1012.7
20260906040507 21 32 8.0 11.3 0.00 0.00 0.00 81 1012.7
20260906040006 21 23 8.0 14.5 0.00 0.00 0.00 81 1013.1
20260906035507 21 24 9.7 14.5 0.00 0.00 0.00 82 1012.6
20260906035007 21 5 11.3 14.5 0.00 0.00 0.00 82 1012.2
20260906034507 21 18 11.3 19.3 0.00 0.00 0.00 83 1012.1
20260906033507 21 18 11.3 19.3 0.00 0.00 0.00 83 1012.1
20260906033007 21 9 14.5 19.3 0.00 0.00 0.00 83 1012.1
20260906032007 21 346 8.0 14.5 0.00 0.00 0.00 82 1012.1
20260906031007 21 342 8.0 14.5 0.00 0.00 0.00 83 1012.1
20260906030506 21 354 8.0 14.5 0.00 0.00 0.00 83 1012.1
20260906030006 21 48 8.0 14.5 0.00 0.00 0.00 83 1012.1
20260906025507 21 314 1.6 11.3 0.00 0.00 0.00 83 1012.1
20260906024507 20 353 3.2 8.0 0.00 0.00 0.00 83 1012.1
20260906024007 20 311 3.2 8.0 0.00 0.00 0.00 83 1012.1
20260906023507 20 288 3.2 8.0 0.00 0.00 0.00 83 1012.1
20260906022506 20 294 3.2 8.0 0.00 0.00 0.00 83 1012.1
20260906022007 20 293 3.2 8.0 0.00 0.00 0.00 83 1012.1
20260906021506 20 283 3.2 8.0 0.00 0.00 0.00 83 1012.1
20260906021007 20 285 1.6 3.2 0.00 0.00 0.00 83 1012.1
20260906020507 20 274 1.6 8.0 0.00 0.00 0.00 83 1012.1
20260906020006 20 267 3.2 8.0 0.00 0.00 0.00 83 1012.1
20260906015507 20 261 3.2 8.0 0.00 0.00 0.00 83 1012.1
20260906015008 20 279 8.0 8.0 0.00 0.00 0.00 83 1012.1
20260906014506 20 280 8.0 8.0 0.00 0.00 0.00 83 1012.1
20260906014007 20 270 8.0 8.0 0.00 0.00 0.00 82 1012.1
20260906013506 21 263 3.2 8.0 0.00 0.00 0.00 81 1012.1
20260906013007 21 276 3.2 8.0 0.00 0.00 0.00 81 1012.1
20260906012506 21 265 1.6 8.0 0.00 0.00 0.00 80 1012.1
20260906012007 21 304 0.0 8.0 0.00 0.00 0.00 79 1012.1
20260906011507 21 297 1.6 8.0 0.00 0.00 0.00 79 1012.1
20260906005506 21 314 3.2 11.3 0.00 0.00 0.00 76 1012.1
20260906005007 21 21 0.0 11.3 0.00 0.00 0.00 76 1012.1
20260906004507 21 287 4.8 11.3 0.00 0.00 0.00 76 1012.1
20260906004007 21 344 3.2 8.0 0.00 0.00 0.00 77 1012.1
20260906003507 21 357 3.2 8.0 0.00 0.00 0.00 76 1012.1
20260906003007 21 341 3.2 8.0 0.00 0.00 0.00 76 1012.1
20260906002506 21 347 1.6 8.0 0.00 0.00 0.00 76 1012.1
20260906002007 21 278 0.0 8.0 0.00 0.00 0.00 76 1012.1
20260906001007 21 314 0.0 8.0 0.00 0.00 0.00 76 1012.1
20260906000006 21 0 0.0 8.0 0.00 0.00 0.00 75 1012.1
20260905235507 21 1 1.6 8.0 0.00 0.00 0.00 76 1012.1
20260905235007 21 325 0.0 8.0 0.00 0.00 0.00 76 1012.1
20260905234506 21 11 1.6 3.2 0.00 0.00 0.00 76 1012.1
20260905234007 21 13 0.0 8.0 0.00 0.00 0.00 75 1012.1
20260905233007 21 19 1.6 8.0 0.00 0.00 0.00 75 1012.1
20260905232506 21 359 0.0 8.0 0.00 0.00 0.00 74 1012.1
20260905232007 21 327 0.0 8.0 0.00 0.00 0.00 74 1012.1
20260905231506 21 348 0.0 3.2 0.00 0.00 0.00 73 1012.1
20260905231007 21 12 0.0 3.2 0.00 0.00 0.00 73 1012.1
20260905230507 22 3 0.0 3.2 0.00 0.00 0.00 72 1012.1
20260905230007 0 28 0.0 0.0 0.00 0.00 0.00 100
20260905225007 22 28 0.0 8.0 0.00 0.00 0.00 72 1012.1
20260905224506 22 21 1.6 8.0 0.00 0.00 0.00 72 1012.1
20260905224007 23 4 0.0 3.2 0.00 0.00 0.00 71 1012.1
20260905223507 23 48 0.0 3.2 0.00 0.00 0.00 71 1012.1
20260905223007 23 56 0.0 8.0 0.00 0.00 0.00 71 1012.1
20260905222507 23 42 3.2 8.0 0.00 0.00 0.00 71 1012.1
20260905222007 23 57 3.2 8.0 0.00 0.00 0.00 70 1012.1
20260905221506 23 58 1.6 8.0 0.00 0.00 0.00 70 1012.1
20260905221007 23 43 0.0 8.0 0.00 0.00 0.00 71 1012.1
20260905220507 23 32 0.0 3.2 0.00 0.00 0.00 71 1012.1
20260905220007 23 46 0.0 0.0 0.00 0.00 0.00 70 1011.8
20260905215506 23 31 0.0 8.0 0.00 0.00 0.00 71 1011.1
20260905214506 23 36 3.2 8.0 0.00 0.00 0.00 71 1011.4
20260905214006 23 27 1.6 8.0 0.00 0.00 0.00 71 1011.1
20260905212506 23 9 3.2 8.0 0.00 0.00 0.00 72 1011.1
20260905212007 23 41 3.2 11.3 0.00 0.00 0.00 72 1011.1
20260905211506 22 20 8.0 11.3 0.00 0.00 0.00 72 1011.1